User: anonymous   Login
Location: Fort Wayne
(41.1310°N, 85.1290°W)
Time: 05:59:03
(UTC-04:00)
Language:

SL-08 RB Rocket - Orbit

View from above orbital plane
View from above orbital plane
View from above satellite
View from above satellite

Ground track
Ground track

The orbit data is extracted from the following two-line orbital elements,

1 26387U 00033D   15147.19234799  .00000275  00000-0  56461-4 0  9994
2 26387 098.0638 215.5143 0026302 201.3763 180.0706 14.67876998797547
Epoch (UTC): 27 May 2015 04:36:58
Eccentricity: 0.0026302
inclination: 98.0638°
perigee height: 649 km
apogee height: 686 km
right ascension of ascending node: 215.5143°
argument of perigee: 201.3763°
revolutions per day: 14.67876998
mean anomaly at epoch: 180.0706°
orbit number at epoch: 79754

The dashed part of the orbit path shows where the satellite is in the earth's shadow,  

DLR